SCP
0 0 1 1 1 1 1 1 1 1 1 1 1 1 1 1 1 1 1 1 1 0 1 1 1 1 1 1 1 1 1 1 1 1 1 1 1 1 1 1 1 1 1
0 0 1 1 1 1 1 1 1 1 1 1 1 1 1 1 1 1 1 0 0 0 1 1 1 1 1 1 1 1 1 1 1 1 1 1 1 1 1 1 1 1 1
0 0 1 1 1 1 1 1 1 1 1 1 1 1 1 1 1 1 0 0 1 1 1 1 1 1 1 1 1 1 1 1 1 1 1 1 1 1 1 1 1 1 1
0 1 1 1 1 1 1 1 1 1 1 1 1 1 1 1 1 1 1 1 1 1 1 1 1 1 1 1 1 1 1 1 1 1 1 1 1 1 1 1 1 1 1
0 1 1 1 1 1 1 1 1 1 1 1 1 1 1 1 1 1 1 1 1 1 1 1 1 1 1 1 1 1 1 1 1 1 1 1 1 1 1 1 1 1 1
0 1 1 1 1 1 1 1 1 1 1 1 1 1 1 1 1 1 1 1 1 1 1 1 1 1 1 1 1 1 1 1 1 1 1 1 1 1 1 1 1 1 1
0 1 1 1 1 1 1 1 1 1 1 1 1 1 1 1 1 1 1 1 1 1 1 1 1 1 2 2 2 1 1 1 0 0 0 0 1 1 1 1 1 1 1
0 1 1 1 1 1 1 1 1 1 1 1 1 1 1 1 1 1 1 2 2 2 1 1 2 2 2 2 2 1 1 1 0 0 0 0 0 1 1 1 1 1 1
0 0 0 1 1 1 0 1 1 1 1 1 1 1 1 1 1 1 1 2 2 2 2 1 2 2 2 2 2 1 1 1 0 0 0 0 0 1 1 1 1 1 1
0 0 0 0 0 1 1 1 1 1 1 1 1 1 1 1 1 1 2 2 2 2 2 2 1 2 2 2 1 1 1 1 0 0 0 0 0 1 1 1 1 1 1
0 0 0 0 0 1 1 1 1 1 1 1 1 1 1 1 1 1 2 2 2 2 2 2 2 1 1 1 1 1 1 1 0 0 0 0 0 0 1 1 1 1 1
0 0 0 0 0 0 1 1 1 1 1 1 1 1 1 1 1 1 1 2 2 1 1 2 2 1 1 1 1 1 1 1 1 0 0 0 0 1 1 1 1 1 1
1 1 0 0 0 0 0 1 1 1 0 0 0 0 1 1 1 1 1 1 1 1 1 1 1 1 1 1 1 1 1 1 1 1 1 1 1 1 1 1 1 1 1
1 1 0 0 0 0 0 0 0 0 0 0 0 0 1 1 1 1 1 1 1 1 1 1 0 0 0 0 0 1 1 1 1 1 1 1 1 1 1 1 1 1 1
1 1 1 0 0 0 0 0 0 0 0 0 0 0 0 0 0 0 0 0 0 0 0 0 0 0 0 0 0 0 0 1 1 1 1 1 1 1 1 1 1 1 1
1 1 1 0 0 0 0 0 0 0 0 0 0 0 0 0 0 0 0 0 0 0 0 0 0 0 0 0 0 0 0 0 0 1 1 1 1 1 1 1 1 1 1
1 1 0 0 0 0 0 0 0 0 0 0 0 0 0 0 0 0 0 0 0 0 0 0 0 0 0 0 0 0 0 0 0 1 1 1 1 1 1 1 1 1 1
0 0 0 1 1 1 1 0 0 1 1 1 1 1 0 0 0 1 1 0 0 0 0 0 0 1 1 0 0 0 0 0 0 1 1 1 1 1 1 1 1 1 1
0 0 0 1 1 1 1 1 1 1 1 1 1 1 1 0 0 1 1 1 1 1 1 0 0 0 0 0 0 0 0 0 0 0 0 0 0 0 1 1 1 1 1
0 0 0 1 1 1 1 1 1 1 1 1 1 1 1 0 1 1 1 1 1 1 1 0 0 0 0 0 0 0 0 0 0 0 0 0 0 0 0 0 0 1 1
1 1 0 0 0 0 1 1 1 1 1 1 1 1 1 1 1 1 1 1 1 1 1 1 1 1 1 0 0 0 0 0 0 0 0 0 0 0 0 0 0 0 1
1 1 0 0 0 0 0 0 0 0 0 1 1 1 1 1 1 1 1 1 1 1 1 1 1 1 1 1 0 0 0 0 0 0 0 0 0 0 0 0 0 0 0
1 1 1 1 1 1 0 0 0 0 0 0 0 0 1 1 1 1 1 1 1 1 1 0 1 1 1 1 0 0 0 0 0 0 0 0 0 0 0 1 1 0 0
1 1 1 1 1 1 1 1 1 1 1 0 0 0 1 1 1 1 1 1 1 1 1 1 1 1 1 0 0 0 0 0 0 0 0 0 0 0 1 1 1 1 0
3 2 1 1 1 1 1 1 1 1 1 1 0 1 1 1 1 1 1 1 1 1 1 1 1 1 1 0 0 0 0 0 0 0 0 0 0 0 1 1 1 0 0
3 2 1 1 1 2 2 2 1 1 1 1 1 1 1 1 1 1 1 0 0 1 1 1 1 1 1 0 0 0 0 0 1 1 0 0 0 0 0 1 0 0 0
Wind_Speed
1 1 2 5 7 8 8 8 8 8 9 10 10 10 10 10 10 11 11 12 12 13 13 14 15 15 16 16 16 17 16 16 15 15 14 13 13 13 13 13 12 9 13
1 1 3 5 7 7 8 8 8 8 9 10 10 10 9 9 10 11 11 12 13 14 13 13 14 15 15 15 15 15 15 15 14 14 14 12 12 12 12 12 11 8 12
2 1 3 5 6 7 7 7 8 8 9 9 10 9 9 9 10 11 11 11 12 13 13 13 14 15 15 15 15 14 14 14 14 13 12 7 8 10 11 11 11 12 11
2 1 2 5 6 6 7 8 9 9 9 9 9 9 9 9 9 11 11 11 12 12 13 13 14 14 14 14 14 14 13 13 13 13 7 6 6 9 10 10 11 11 11
2 2 2 5 5 7 7 7 8 9 9 9 9 9 9 8 9 10 11 11 12 12 13 13 14 13 13 13 13 13 12 13 13 10 6 5 4 8 9 10 10 11 10
2 2 2 5 5 6 7 7 8 8 8 9 9 9 8 8 8 9 10 10 11 12 12 12 13 12 11 12 12 12 11 12 10 6 6 5 4 7 9 10 10 10 10
2 1 2 4 5 5 6 6 7 7 8 8 8 8 8 7 8 9 10 10 11 11 11 11 11 11 10 10 11 10 10 11 7 6 5 4 4 7 8 9 9 9 9
2 2 2 3 4 5 5 5 6 6 7 7 8 8 7 7 8 8 9 10 11 11 11 10 10 9 9 9 10 10 10 10 7 6 5 4 5 6 7 8 8 8 9
3 3 3 3 3 4 4 5 5 5 5 6 6 7 7 7 7 7 8 9 10 10 10 10 9 9 8 8 8 9 9 9 6 4 5 3 5 7 7 7 8 8 8
4 3 3 3 3 3 3 4 4 4 5 5 5 6 6 6 6 7 7 8 9 9 9 9 8 7 7 7 7 7 8 7 5 5 3 4 6 7 8 8 8 8 8
2 3 3 3 2 2 2 3 3 4 4 4 4 5 5 3 3 4 5 7 8 8 8 8 7 6 6 6 6 7 6 3 4 3 3 5 7 8 8 8 8 8 8
1 1 1 2 2 2 2 2 2 2 3 3 3 3 3 3 3 3 4 6 7 6 6 6 5 5 4 2 4 5 2 4 3 3 3 7 7 8 8 8 7 8 8
1 1 1 1 1 1 1 1 1 2 2 2 3 3 3 3 3 3 2 3 3 4 3 4 3 2 2 2 2 2 3 3 2 2 3 7 7 8 8 8 7 7 7
1 0 0 1 1 2 2 2 2 1 1 2 2 3 3 2 2 2 2 2 2 2 2 2 2 2 2 2 2 3 3 3 2 2 3 7 7 8 8 8 7 7 7
1 1 1 1 1 1 2 1 2 1 1 2 2 2 2 2 2 2 2 2 2 2 2 2 2 2 1 2 2 2 3 3 3 2 2 6 7 7 7 8 8 8 8
2 2 1 2 2 2 2 2 1 1 1 1 1 1 2 2 2 2 1 1 1 1 1 1 1 2 1 1 2 2 2 2 2 2 2 3 5 6 6 6 7 7 7
2 2 2 2 2 2 2 2 1 1 1 1 1 1 1 2 2 2 1 1 1 1 2 2 2 2 2 2 2 2 2 2 2 2 2 1 2 4 5 6 6 6 6
3 3 2 2 3 2 2 2 1 1 1 1 1 1 1 1 2 2 1 1 1 1 2 2 2 2 2 2 2 2 2 2 2 2 1 1 1 1 3 5 5 6 6
3 3 3 2 3 3 2 2 2 2 1 1 1 1 1 1 2 2 1 1 1 1 1 2 2 2 2 2 2 2 2 1 1 2 2 1 1 1 1 1 3 4 6
3 3 3 2 2 3 2 2 2 2 1 1 1 0 1 1 1 2 2 1 2 2 1 2 2 2 2 2 2 3 2 2 1 1 1 1 1 1 1 1 1 1 2
3 3 3 3 2 2 2 2 1 1 1 1 1 1 1 1 2 2 2 1 1 1 1 2 2 2 2 2 2 2 2 2 2 1 1 1 0 1 1 1 0 0 1
4 4 3 3 3 3 2 2 1 1 0 1 1 2 1 1 1 1 2 1 1 1 2 2 2 2 1 1 2 2 1 2 2 2 1 1 0 0 0 1 1 0 1
5 5 4 4 4 3 3 3 2 2 2 2 2 1 1 1 1 1 1 1 1 1 1 1 1 2 1 1 1 2 2 1 1 2 2 1 1 1 0 0 1 0 0
6 5 4 4 4 3 4 4 3 2 1 0 0 0 1 1 1 1 1 1 1 1 1 1 1 1 2 1 0 1 1 2 2 0 1 1 1 0 1 1 1 1 0
6 5 5 4 3 3 4 4 4 2 1 0 1 1 1 1 1 1 1 1 1 1 1 1 1 1 1 2 1 1 1 1 1 2 1 0 1 1 0 1 0 0 1
5 5 5 5 4 4 4 4 4 4 2 1 1 1 1 1 1 1 0 1 1 1 1 1 1 2 1 2 1 1 2 2 2 2 2 1 1 1 0 0 0 1 0
Wind_Direction
338 325 94 87 90 94 97 100 100 108 110 109 109 109 108 108 114 117 117 116 121 120 120 123 123 125 128 130 131 130 130 130 133 134 133 132 129 127 127 126 126 125 124
126 83 91 85 86 92 95 97 98 104 109 109 110 110 107 108 115 118 119 117 120 121 121 121 123 126 128 129 130 131 132 134 136 135 134 133 132 131 130 130 129 128 127
81 70 96 87 87 92 97 100 100 101 107 108 109 109 109 110 117 121 121 120 120 122 123 122 123 127 128 130 131 132 133 136 137 135 131 127 133 134 132 133 133 130 130
95 75 102 93 86 90 96 99 100 99 102 105 109 109 109 108 114 120 122 123 124 125 126 125 125 127 127 129 131 132 133 135 135 132 122 122 131 138 138 138 138 137 136
86 75 98 99 94 96 93 96 98 96 100 101 104 106 107 109 110 117 122 124 125 125 126 126 126 125 126 130 131 131 132 133 130 123 115 115 123 142 144 143 142 140 139
91 72 81 98 96 97 97 92 93 93 96 97 100 103 104 109 113 119 124 124 124 124 124 123 124 123 124 127 130 130 129 129 123 117 116 120 129 146 145 144 143 142 142
89 54 65 96 96 97 100 96 94 97 98 97 97 96 96 102 116 123 126 126 127 127 125 124 124 122 124 130 134 134 133 129 120 118 120 124 135 145 146 145 144 146 149
82 53 52 85 93 91 95 99 102 102 99 96 94 92 92 96 108 116 120 126 128 128 128 128 128 128 129 132 135 137 135 134 129 130 128 132 147 150 148 148 146 149 154
50 43 27 22 40 69 79 90 96 96 95 92 90 90 92 96 105 112 121 124 125 126 128 129 131 133 131 132 140 143 142 139 131 139 147 149 160 159 154 152 153 151 153
41 33 23 23 26 26 43 79 84 85 85 84 82 83 87 92 106 111 116 122 125 127 129 131 133 134 134 134 139 145 141 133 137 147 152 164 167 165 162 158 158 158 158
39 20 18 19 23 25 32 56 65 67 61 59 61 67 64 53 71 99 113 122 125 126 129 133 132 131 130 131 137 138 130 131 142 154 160 173 174 173 169 166 165 166 167
23 3 10 8 21 25 34 45 36 33 35 40 40 46 48 49 53 77 101 113 114 112 116 122 125 121 112 107 124 124 127 143 151 169 180 181 179 177 174 171 170 168 171
197 30 11 4 22 47 41 59 52 38 34 39 43 50 53 51 50 56 68 80 82 84 77 84 77 75 94 112 117 135 149 152 163 179 188 189 187 184 181 176 175 173 174
138 175 336 29 56 57 60 62 60 52 43 42 42 50 63 59 50 55 67 64 66 69 69 70 80 75 77 102 130 152 160 164 167 174 192 195 194 193 187 182 183 184 185
163 187 172 122 107 88 83 69 64 55 50 52 52 53 75 78 67 62 59 63 65 69 73 73 75 78 78 80 106 137 154 163 167 170 186 194 196 197 192 189 191 193 196
185 191 147 133 134 112 99 95 89 78 66 58 57 62 88 100 93 82 73 75 77 87 96 98 96 90 80 82 79 103 131 142 152 167 182 193 195 191 187 186 191 196 198
178 166 143 142 125 117 107 102 87 71 77 74 60 70 111 124 126 127 114 94 91 98 102 95 84 85 93 93 81 89 113 125 139 157 168 177 193 198 195 195 199 202 205
156 145 151 150 134 128 117 103 90 81 75 54 49 53 76 124 138 137 127 111 96 103 105 107 99 91 84 87 77 63 87 110 133 143 146 156 178 194 206 210 211 211 215
171 158 151 140 133 129 116 98 83 74 73 51 49 43 44 94 123 132 131 111 93 95 99 116 104 111 105 96 89 69 68 81 110 134 139 150 159 178 192 214 222 225 228
168 157 153 139 126 116 99 79 61 54 41 42 56 62 55 75 104 113 108 87 85 93 86 95 106 97 107 115 90 67 52 52 76 102 145 145 162 199 202 216 266 279 254
164 162 164 149 140 117 96 86 73 43 15 22 37 51 67 87 99 103 100 97 101 114 122 117 116 110 103 107 89 61 33 44 62 62 102 118 131 214 182 181 208 352 337
179 177 174 171 157 148 133 126 129 121 71 47 40 40 48 78 94 123 122 123 119 118 107 118 131 131 135 136 128 108 37 12 26 35 65 118 125 115 148 159 117 103 316
188 187 187 183 169 159 139 112 88 63 43 35 26 14 17 52 63 84 106 114 115 119 128 130 140 142 153 141 140 151 150 199 7 17 28 49 75 96 223 135 153 187 220
195 186 182 172 166 156 140 137 136 132 131 242 302 348 2 31 65 86 101 113 123 123 137 183 139 146 148 164 137 136 152 155 148 81 19 34 47 155 241 232 197 177 201
184 179 176 165 163 154 150 154 148 140 154 104 39 23 12 14 32 45 102 120 139 143 157 143 118 135 149 164 173 155 131 113 130 151 196 342 18 17 325 254 241 184 171
175 173 168 162 170 161 155 153 154 152 146 119 83 41 10 8 6 7 74 134 160 163 170 165 155 155 174 173 172 166 169 164 172 159 175 201 255 307 319 246 247 247 189